Year,Month,Day,Hour,Minute,Value (Times are PST for temperature in C)
2010,05,30,00,00,10.30
2010,05,30,00,01,10.20
2010,05,30,00,02,10.20
2010,05,30,00,03,10.20
2010,05,30,00,04,10.20
2010,05,30,00,05,10.20
2010,05,30,00,06,10.20
2010,05,30,00,07,10.20
2010,05,30,00,08,10.20
2010,05,30,00,09,10.20
2010,05,30,00,10,10.20
2010,05,30,00,11,10.20
2010,05,30,00,12,10.20
2010,05,30,00,13,10.20
2010,05,30,00,14,10.20
2010,05,30,00,15,10.20
2010,05,30,00,16,10.20
2010,05,30,00,17,10.20
2010,05,30,00,18,10.20
2010,05,30,00,19,10.20
2010,05,30,00,20,10.20
2010,05,30,00,21,10.20
2010,05,30,00,22,10.20
2010,05,30,00,23,10.20
2010,05,30,00,24,10.20
2010,05,30,00,25,10.20
2010,05,30,00,26,10.20
2010,05,30,00,27,10.20
2010,05,30,00,28,10.20
2010,05,30,00,29,10.20
2010,05,30,00,30,10.20
2010,05,30,00,31,10.20
2010,05,30,00,32,10.20
2010,05,30,00,33,10.20
2010,05,30,00,34,10.10
2010,05,30,00,35,10.10
2010,05,30,00,36,10.10
2010,05,30,00,37,10.10
2010,05,30,00,38,10.10
2010,05,30,00,39,10.10
2010,05,30,00,40,10.10
2010,05,30,00,41,10.00
2010,05,30,00,42,10.00
2010,05,30,00,43,10.00
2010,05,30,00,44,10.00
2010,05,30,00,45,9.90
2010,05,30,00,46,9.90
2010,05,30,00,47,9.90
2010,05,30,00,48,9.90
2010,05,30,00,49,9.90
2010,05,30,00,50,9.90
2010,05,30,00,51,9.80
2010,05,30,00,52,9.80
2010,05,30,00,53,9.80
2010,05,30,00,54,9.80
2010,05,30,00,55,9.80
2010,05,30,00,56,9.80
2010,05,30,00,57,9.80
2010,05,30,00,58,9.80
2010,05,30,00,59,9.70
2010,05,30,01,00,9.70
2010,05,30,01,01,9.70
2010,05,30,01,02,9.70
2010,05,30,01,03,9.70
2010,05,30,01,04,9.70
2010,05,30,01,05,9.70
2010,05,30,01,06,9.60
2010,05,30,01,07,9.60
2010,05,30,01,08,9.60
2010,05,30,01,09,9.60
2010,05,30,01,10,9.50
2010,05,30,01,11,9.50
2010,05,30,01,12,9.50
2010,05,30,01,13,9.50
2010,05,30,01,14,9.40
2010,05,30,01,15,9.40
2010,05,30,01,16,9.40
2010,05,30,01,17,9.40
2010,05,30,01,18,9.40
2010,05,30,01,19,9.40
2010,05,30,01,20,9.40
2010,05,30,01,21,9.40
2010,05,30,01,22,9.40
2010,05,30,01,23,9.40
2010,05,30,01,24,9.40
2010,05,30,01,25,9.40
2010,05,30,01,26,9.40
2010,05,30,01,27,9.40
2010,05,30,01,28,9.40
2010,05,30,01,29,9.40
2010,05,30,01,30,9.40
2010,05,30,01,31,9.40
2010,05,30,01,32,9.40
2010,05,30,01,33,9.40
2010,05,30,01,34,9.40
2010,05,30,01,35,9.40
2010,05,30,01,36,9.40
2010,05,30,01,37,9.40
2010,05,30,01,38,9.30
2010,05,30,01,39,9.40
2010,05,30,01,40,9.40
2010,05,30,01,41,9.40
2010,05,30,01,42,9.40
2010,05,30,01,43,9.40
2010,05,30,01,44,9.40
2010,05,30,01,45,9.40
2010,05,30,01,46,9.40
2010,05,30,01,47,9.40
2010,05,30,01,48,9.40
2010,05,30,01,49,9.40
2010,05,30,01,50,9.40
2010,05,30,01,51,9.40
2010,05,30,01,52,9.40
2010,05,30,01,53,9.40
2010,05,30,01,54,9.40
2010,05,30,01,55,9.40
2010,05,30,01,56,9.40
2010,05,30,01,57,9.40
2010,05,30,01,58,9.40
2010,05,30,01,59,9.40
2010,05,30,02,00,9.40
2010,05,30,02,01,9.40
2010,05,30,02,02,9.40
2010,05,30,02,03,9.40
2010,05,30,02,04,9.40
2010,05,30,02,05,9.40
2010,05,30,02,06,9.40
2010,05,30,02,07,9.40
2010,05,30,02,08,9.40
2010,05,30,02,09,9.40
2010,05,30,02,10,9.40
2010,05,30,02,11,9.40
2010,05,30,02,12,9.40
2010,05,30,02,13,9.40
2010,05,30,02,14,9.40
2010,05,30,02,15,9.40
2010,05,30,02,16,9.40
2010,05,30,02,17,9.40
2010,05,30,02,18,9.40
2010,05,30,02,19,9.40
2010,05,30,02,20,9.40
2010,05,30,02,21,9.40
2010,05,30,02,22,9.40
2010,05,30,02,23,9.40
2010,05,30,02,24,9.40
2010,05,30,02,25,9.40
2010,05,30,02,26,9.40
2010,05,30,02,27,9.40
2010,05,30,02,28,9.40
2010,05,30,02,29,9.40
2010,05,30,02,30,9.40
2010,05,30,02,31,9.40
2010,05,30,02,32,9.40
2010,05,30,02,33,9.40
2010,05,30,02,34,9.40
2010,05,30,02,35,9.40
2010,05,30,02,36,9.40
2010,05,30,02,37,9.40
2010,05,30,02,38,9.40
2010,05,30,02,39,9.40
2010,05,30,02,40,9.40
2010,05,30,02,41,9.40
2010,05,30,02,42,9.40
2010,05,30,02,43,9.40
2010,05,30,02,44,9.50
2010,05,30,02,45,9.50
2010,05,30,02,46,9.50
2010,05,30,02,47,9.50
2010,05,30,02,48,9.40
2010,05,30,02,49,9.40
2010,05,30,02,50,9.40
2010,05,30,02,51,9.40
2010,05,30,02,52,9.40
2010,05,30,02,53,9.40
2010,05,30,02,54,9.40
2010,05,30,02,55,9.40
2010,05,30,02,56,9.40
2010,05,30,02,57,9.40
2010,05,30,02,58,9.40
2010,05,30,02,59,9.40
2010,05,30,03,00,9.40
2010,05,30,03,01,9.40
2010,05,30,03,02,9.30
2010,05,30,03,03,9.30
2010,05,30,03,04,9.30
2010,05,30,03,05,9.30
2010,05,30,03,06,9.30
2010,05,30,03,07,9.30
2010,05,30,03,08,9.30
2010,05,30,03,09,9.30
2010,05,30,03,10,9.30
2010,05,30,03,11,9.30
2010,05,30,03,12,9.30
2010,05,30,03,13,9.30
2010,05,30,03,14,9.40
2010,05,30,03,15,9.40
2010,05,30,03,16,9.40
2010,05,30,03,17,9.40
2010,05,30,03,18,9.40
2010,05,30,03,19,9.40
2010,05,30,03,20,9.40
2010,05,30,03,21,9.40
2010,05,30,03,22,9.30
2010,05,30,03,23,9.30
2010,05,30,03,24,9.30
2010,05,30,03,25,9.30
2010,05,30,03,26,9.30
2010,05,30,03,27,9.30
2010,05,30,03,28,9.30
2010,05,30,03,29,9.30
2010,05,30,03,30,9.30
2010,05,30,03,31,9.30
2010,05,30,03,32,9.30
2010,05,30,03,33,9.40
2010,05,30,03,34,9.40
2010,05,30,03,35,9.40
2010,05,30,03,36,9.40
2010,05,30,03,37,9.40
2010,05,30,03,38,9.40
2010,05,30,03,39,9.40
2010,05,30,03,40,9.40
2010,05,30,03,41,9.40
2010,05,30,03,42,9.30
2010,05,30,03,43,9.30
2010,05,30,03,44,9.30
2010,05,30,03,45,9.30
2010,05,30,03,46,9.30
2010,05,30,03,47,9.30
2010,05,30,03,48,9.30
2010,05,30,03,49,9.30
2010,05,30,03,50,9.30
2010,05,30,03,51,9.30
2010,05,30,03,52,9.30
2010,05,30,03,53,9.30
2010,05,30,03,54,9.30
2010,05,30,03,55,9.30
2010,05,30,03,56,9.30
2010,05,30,03,57,9.30
2010,05,30,03,58,9.30
2010,05,30,03,59,9.40
2010,05,30,04,00,9.40
2010,05,30,04,01,9.40
2010,05,30,04,02,9.40
2010,05,30,04,03,9.40
2010,05,30,04,04,9.40
2010,05,30,04,05,9.30
2010,05,30,04,06,9.30
2010,05,30,04,07,9.30
2010,05,30,04,08,9.30
2010,05,30,04,09,9.20
2010,05,30,04,10,9.20
2010,05,30,04,11,9.20
2010,05,30,04,12,9.20
2010,05,30,04,13,9.20
2010,05,30,04,14,9.20
2010,05,30,04,15,9.20
2010,05,30,04,16,9.20
2010,05,30,04,17,9.20
2010,05,30,04,18,9.20
2010,05,30,04,19,9.20
2010,05,30,04,20,9.10
2010,05,30,04,21,9.10
2010,05,30,04,22,9.10
2010,05,30,04,23,9.10
2010,05,30,04,24,9.00
2010,05,30,04,25,9.00
2010,05,30,04,26,8.90
2010,05,30,04,27,8.80
2010,05,30,04,28,8.80
2010,05,30,04,29,8.70
2010,05,30,04,30,8.70
2010,05,30,04,31,8.60
2010,05,30,04,32,8.50
2010,05,30,04,33,8.50
2010,05,30,04,34,8.40
2010,05,30,04,35,8.30
2010,05,30,04,36,8.30
2010,05,30,04,37,8.30
2010,05,30,04,38,8.30
2010,05,30,04,39,8.20
2010,05,30,04,40,8.20
2010,05,30,04,41,8.20
2010,05,30,04,42,8.20
2010,05,30,04,43,8.10
2010,05,30,04,44,8.10
2010,05,30,04,45,8.10
2010,05,30,04,46,8.00
2010,05,30,04,47,8.00
2010,05,30,04,48,7.90
2010,05,30,04,49,7.90
2010,05,30,04,50,7.90
2010,05,30,04,51,7.80
2010,05,30,04,52,7.80
2010,05,30,04,53,7.80
2010,05,30,04,54,7.80
2010,05,30,04,55,7.80
2010,05,30,04,56,7.70
2010,05,30,04,57,7.70
2010,05,30,04,58,7.70
2010,05,30,04,59,7.70
2010,05,30,05,00,7.70
2010,05,30,05,01,7.70
2010,05,30,05,02,7.60
2010,05,30,05,03,7.60
2010,05,30,05,04,7.60
2010,05,30,05,05,7.60
2010,05,30,05,06,7.60
2010,05,30,05,07,7.60
2010,05,30,05,08,7.50
2010,05,30,05,09,7.50
2010,05,30,05,10,7.50
2010,05,30,05,11,7.50
2010,05,30,05,12,7.50
2010,05,30,05,13,7.40
2010,05,30,05,14,7.40
2010,05,30,05,15,7.40
2010,05,30,05,16,7.40
2010,05,30,05,17,7.40
2010,05,30,05,18,7.40
2010,05,30,05,19,7.30
2010,05,30,05,20,7.30
2010,05,30,05,21,7.30
2010,05,30,05,22,7.30
2010,05,30,05,23,7.20
2010,05,30,05,24,7.20
2010,05,30,05,25,7.20
2010,05,30,05,26,7.20
2010,05,30,05,27,7.20
2010,05,30,05,28,7.20
2010,05,30,05,29,7.20
2010,05,30,05,30,7.20
2010,05,30,05,31,7.10
2010,05,30,05,32,7.10
2010,05,30,05,33,7.10
2010,05,30,05,34,7.10
2010,05,30,05,35,7.10
2010,05,30,05,36,7.10
2010,05,30,05,37,7.00
2010,05,30,05,38,7.00
2010,05,30,05,39,7.00
2010,05,30,05,40,7.00
2010,05,30,05,41,7.00
2010,05,30,05,42,6.90
2010,05,30,05,43,6.90
2010,05,30,05,44,6.90
2010,05,30,05,45,6.90
2010,05,30,05,46,6.90
2010,05,30,05,47,6.90
2010,05,30,05,48,6.90
2010,05,30,05,49,6.90
2010,05,30,05,50,6.90
2010,05,30,05,51,6.90
2010,05,30,05,52,6.80
2010,05,30,05,53,6.80
2010,05,30,05,54,6.80
2010,05,30,05,55,6.80
2010,05,30,05,56,6.80
2010,05,30,05,57,6.80
2010,05,30,05,58,6.80
2010,05,30,05,59,6.80
2010,05,30,06,00,6.80
2010,05,30,06,01,6.80
2010,05,30,06,02,6.80
2010,05,30,06,03,6.80
2010,05,30,06,04,6.80
2010,05,30,06,05,6.80
2010,05,30,06,06,6.80
2010,05,30,06,07,6.80
2010,05,30,06,08,6.80
2010,05,30,06,09,6.80
2010,05,30,06,10,6.80
2010,05,30,06,11,6.80
2010,05,30,06,12,6.80
2010,05,30,06,13,6.90
2010,05,30,06,14,6.90
2010,05,30,06,15,6.80
2010,05,30,06,16,6.80
2010,05,30,06,17,6.80
2010,05,30,06,18,6.80
2010,05,30,06,19,6.80
2010,05,30,06,20,6.80
2010,05,30,06,21,6.80
2010,05,30,06,22,6.80
2010,05,30,06,23,6.80
2010,05,30,06,24,6.80
2010,05,30,06,25,6.80
2010,05,30,06,26,6.80
2010,05,30,06,27,6.80
2010,05,30,06,28,6.80
2010,05,30,06,29,6.80
2010,05,30,06,30,6.90
2010,05,30,06,31,6.90
2010,05,30,06,32,6.90
2010,05,30,06,33,6.90
2010,05,30,06,34,7.00
2010,05,30,06,35,7.00
2010,05,30,06,36,7.00
2010,05,30,06,37,7.00
2010,05,30,06,38,7.00
2010,05,30,06,39,7.00
2010,05,30,06,40,7.10
2010,05,30,06,41,7.10
2010,05,30,06,42,7.10
2010,05,30,06,43,7.10
2010,05,30,06,44,7.20
2010,05,30,06,45,7.20
2010,05,30,06,46,7.20
2010,05,30,06,47,7.20
2010,05,30,06,48,7.20
2010,05,30,06,49,7.20
2010,05,30,06,50,7.20
2010,05,30,06,51,7.30
2010,05,30,06,52,7.30
2010,05,30,06,53,7.30
2010,05,30,06,54,7.40
2010,05,30,06,55,7.40
2010,05,30,06,56,7.40
2010,05,30,06,57,7.50
2010,05,30,06,58,7.60
2010,05,30,06,59,7.70
2010,05,30,07,00,7.70
2010,05,30,07,01,7.80
2010,05,30,07,02,7.80
2010,05,30,07,03,7.90
2010,05,30,07,04,7.90
2010,05,30,07,05,8.00
2010,05,30,07,06,8.00
2010,05,30,07,07,8.10
2010,05,30,07,08,8.10
2010,05,30,07,09,8.20
2010,05,30,07,10,8.20
2010,05,30,07,11,8.20
2010,05,30,07,12,8.30
2010,05,30,07,13,8.30
2010,05,30,07,14,8.40
2010,05,30,07,15,8.40
2010,05,30,07,16,8.40
2010,05,30,07,17,8.50
2010,05,30,07,18,8.50
2010,05,30,07,19,8.60
2010,05,30,07,20,8.70
2010,05,30,07,21,8.80
2010,05,30,07,22,8.80
2010,05,30,07,23,8.80
2010,05,30,07,24,8.90
2010,05,30,07,25,8.90
2010,05,30,07,26,9.00
2010,05,30,07,27,9.10
2010,05,30,07,28,9.10
2010,05,30,07,29,9.20
2010,05,30,07,30,9.20
2010,05,30,07,31,9.30
2010,05,30,07,32,9.30
2010,05,30,07,33,9.40
2010,05,30,07,34,9.40
2010,05,30,07,35,9.50
2010,05,30,07,36,9.60
2010,05,30,07,37,9.60
2010,05,30,07,38,9.60
2010,05,30,07,39,9.70
2010,05,30,07,40,9.80
2010,05,30,07,41,9.80
2010,05,30,07,42,9.90
2010,05,30,07,43,9.90
2010,05,30,07,44,9.90
2010,05,30,07,45,10.00
2010,05,30,07,46,10.00
2010,05,30,07,47,10.00
2010,05,30,07,48,10.00
2010,05,30,07,49,10.00
2010,05,30,07,50,10.00
2010,05,30,07,51,10.10
2010,05,30,07,52,10.10
2010,05,30,07,53,10.10
2010,05,30,07,54,10.10
2010,05,30,07,55,10.20
2010,05,30,07,56,10.20
2010,05,30,07,57,10.20
2010,05,30,07,58,10.20
2010,05,30,07,59,10.20
2010,05,30,08,00,10.30
2010,05,30,08,01,10.30
2010,05,30,08,02,10.30
2010,05,30,08,03,10.30
2010,05,30,08,04,10.30
2010,05,30,08,05,10.30
2010,05,30,08,06,10.30
2010,05,30,08,07,10.40
2010,05,30,08,08,10.40
2010,05,30,08,09,10.40
2010,05,30,08,10,10.40
2010,05,30,08,11,10.40
2010,05,30,08,12,10.40
2010,05,30,08,13,10.40
2010,05,30,08,14,10.40
2010,05,30,08,15,10.40
2010,05,30,08,16,10.40
2010,05,30,08,17,10.50
2010,05,30,08,18,10.50
2010,05,30,08,19,10.60
2010,05,30,08,20,10.60
2010,05,30,08,21,10.60
2010,05,30,08,22,10.60
2010,05,30,08,23,10.70
2010,05,30,08,24,10.70
2010,05,30,08,25,10.80
2010,05,30,08,26,10.80
2010,05,30,08,27,10.90
2010,05,30,08,28,11.00
2010,05,30,08,29,11.10
2010,05,30,08,30,11.10
2010,05,30,08,31,11.20
2010,05,30,08,32,11.20
2010,05,30,08,33,11.30
2010,05,30,08,34,11.30
2010,05,30,08,35,11.30
2010,05,30,08,36,11.30
2010,05,30,08,37,11.30
2010,05,30,08,38,11.30
2010,05,30,08,39,11.20
2010,05,30,08,40,11.20
2010,05,30,08,41,11.20
2010,05,30,08,42,11.20
2010,05,30,08,43,11.20
2010,05,30,08,44,11.20
2010,05,30,08,45,11.20
2010,05,30,08,46,11.30
2010,05,30,08,47,11.30
2010,05,30,08,48,11.30
2010,05,30,08,49,11.30
2010,05,30,08,50,11.40
2010,05,30,08,51,11.40
2010,05,30,08,52,11.40
2010,05,30,08,53,11.50
2010,05,30,08,54,11.50
2010,05,30,08,55,11.60
2010,05,30,08,56,11.60
2010,05,30,08,57,11.60
2010,05,30,08,58,11.60
2010,05,30,08,59,11.60
2010,05,30,09,00,11.60
2010,05,30,09,01,11.60
2010,05,30,09,02,11.60
2010,05,30,09,03,11.60
2010,05,30,09,04,11.70
2010,05,30,09,05,11.70
2010,05,30,09,06,11.70
2010,05,30,09,07,11.70
2010,05,30,09,08,11.70
2010,05,30,09,09,11.70
2010,05,30,09,10,11.70
2010,05,30,09,11,11.80
2010,05,30,09,12,11.80
2010,05,30,09,13,11.80
2010,05,30,09,14,11.80
2010,05,30,09,15,11.80
2010,05,30,09,16,11.80
2010,05,30,09,17,11.80
2010,05,30,09,18,11.80
2010,05,30,09,19,11.80
2010,05,30,09,20,11.80
2010,05,30,09,21,11.80
2010,05,30,09,22,11.80
2010,05,30,09,23,11.80
2010,05,30,09,24,11.90
2010,05,30,09,25,11.90
2010,05,30,09,26,11.90
2010,05,30,09,27,11.90
2010,05,30,09,28,12.00
2010,05,30,09,29,12.00
2010,05,30,09,30,12.00
2010,05,30,09,31,12.00
2010,05,30,09,32,12.00
2010,05,30,09,33,12.00
2010,05,30,09,34,11.90
2010,05,30,09,35,11.90
2010,05,30,09,36,11.90
2010,05,30,09,37,11.90
2010,05,30,09,38,11.90
2010,05,30,09,39,11.90
2010,05,30,09,40,12.00
2010,05,30,09,41,12.00
2010,05,30,09,42,12.00
2010,05,30,09,43,12.10
2010,05,30,09,44,12.10
2010,05,30,09,45,12.10
2010,05,30,09,46,12.10
2010,05,30,09,47,12.10
2010,05,30,09,48,12.20
2010,05,30,09,49,12.20
2010,05,30,09,50,12.20
2010,05,30,09,51,12.20
2010,05,30,09,52,12.30
2010,05,30,09,53,12.20
2010,05,30,09,54,12.20
2010,05,30,09,55,12.20
2010,05,30,09,56,12.10
2010,05,30,09,57,12.10
2010,05,30,09,58,12.00
2010,05,30,09,59,11.90
2010,05,30,10,00,11.90
2010,05,30,10,01,11.80
2010,05,30,10,02,11.80
2010,05,30,10,03,11.80
2010,05,30,10,04,11.70
2010,05,30,10,05,11.70
2010,05,30,10,06,11.70
2010,05,30,10,07,11.70
2010,05,30,10,08,11.70
2010,05,30,10,09,11.60
2010,05,30,10,10,11.60
2010,05,30,10,11,11.60
2010,05,30,10,12,11.60
2010,05,30,10,13,11.60
2010,05,30,10,14,11.60
2010,05,30,10,15,11.60
2010,05,30,10,16,11.60
2010,05,30,10,17,11.50
2010,05,30,10,18,11.50
2010,05,30,10,19,11.50
2010,05,30,10,20,11.40
2010,05,30,10,21,11.40
2010,05,30,10,22,11.40
2010,05,30,10,23,11.40
2010,05,30,10,24,11.40
2010,05,30,10,25,11.50
2010,05,30,10,26,11.50
2010,05,30,10,27,11.60
2010,05,30,10,28,11.60
2010,05,30,10,29,11.60
2010,05,30,10,30,11.60
2010,05,30,10,31,11.60
2010,05,30,10,32,11.70
2010,05,30,10,33,11.70
2010,05,30,10,34,11.70
2010,05,30,10,35,11.80
2010,05,30,10,36,11.80
2010,05,30,10,37,11.80
2010,05,30,10,38,11.80
2010,05,30,10,39,11.80
2010,05,30,10,40,11.80
2010,05,30,10,41,11.90
2010,05,30,10,42,11.90
2010,05,30,10,43,11.80
2010,05,30,10,44,11.80
2010,05,30,10,45,11.80
2010,05,30,10,46,11.80
2010,05,30,10,47,11.80
2010,05,30,10,48,11.80
2010,05,30,10,49,11.80
2010,05,30,10,50,11.80
2010,05,30,10,51,11.80
2010,05,30,10,52,11.80
2010,05,30,10,53,11.80
2010,05,30,10,54,11.90
2010,05,30,10,55,11.90
2010,05,30,10,56,11.90
2010,05,30,10,57,11.90
2010,05,30,10,58,11.90
2010,05,30,10,59,11.90
2010,05,30,11,00,11.90
2010,05,30,11,01,11.90
2010,05,30,11,02,11.80
2010,05,30,11,03,11.70
2010,05,30,11,04,11.70
2010,05,30,11,05,11.60
2010,05,30,11,06,11.60
2010,05,30,11,07,11.60
2010,05,30,11,08,11.60
2010,05,30,11,09,11.70
2010,05,30,11,10,11.70
2010,05,30,11,11,11.80
2010,05,30,11,12,11.80
2010,05,30,11,13,11.90
2010,05,30,11,14,11.90
2010,05,30,11,15,12.00
2010,05,30,11,16,12.10
2010,05,30,11,17,12.20
2010,05,30,11,18,12.30
2010,05,30,11,19,12.30
2010,05,30,11,20,12.30
2010,05,30,11,21,12.40
2010,05,30,11,22,12.40
2010,05,30,11,23,12.50
2010,05,30,11,24,12.60
2010,05,30,11,25,12.60
2010,05,30,11,26,12.60
2010,05,30,11,27,12.60
2010,05,30,11,28,12.60
2010,05,30,11,29,12.60
2010,05,30,11,30,12.60
2010,05,30,11,31,12.60
2010,05,30,11,32,12.60
2010,05,30,11,33,12.60
2010,05,30,11,34,12.50
2010,05,30,11,35,12.50
2010,05,30,11,36,12.50
2010,05,30,11,37,12.40
2010,05,30,11,38,12.40
2010,05,30,11,39,12.30
2010,05,30,11,40,12.30
2010,05,30,11,41,12.30
2010,05,30,11,42,12.30
2010,05,30,11,43,12.30
2010,05,30,11,44,12.30
2010,05,30,11,45,12.30
2010,05,30,11,46,12.30
2010,05,30,11,47,12.30
2010,05,30,11,48,12.30
2010,05,30,11,49,12.30
2010,05,30,11,50,12.30
2010,05,30,11,51,12.30
2010,05,30,11,52,12.30
2010,05,30,11,53,12.30
2010,05,30,11,54,12.30
2010,05,30,11,55,12.30
2010,05,30,11,56,12.30
2010,05,30,11,57,12.40
2010,05,30,11,58,12.40
2010,05,30,11,59,12.40
2010,05,30,12,00,12.40
2010,05,30,12,01,12.40
2010,05,30,12,02,12.50
2010,05,30,12,03,12.50
2010,05,30,12,04,12.60
2010,05,30,12,05,12.60
2010,05,30,12,06,12.60
2010,05,30,12,07,12.60
2010,05,30,12,08,12.60
2010,05,30,12,09,12.60
2010,05,30,12,10,12.60
2010,05,30,12,11,12.60
2010,05,30,12,12,12.60
2010,05,30,12,13,12.60
2010,05,30,12,14,12.60
2010,05,30,12,15,12.60
2010,05,30,12,16,12.70
2010,05,30,12,17,12.70
2010,05,30,12,18,12.70
2010,05,30,12,19,12.80
2010,05,30,12,20,12.80
2010,05,30,12,21,12.80
2010,05,30,12,22,12.90
2010,05,30,12,23,12.90
2010,05,30,12,24,12.90
2010,05,30,12,25,13.00
2010,05,30,12,26,13.00
2010,05,30,12,27,13.10
2010,05,30,12,28,13.20
2010,05,30,12,29,13.30
2010,05,30,12,30,13.30
2010,05,30,12,31,13.40
2010,05,30,12,32,13.50
2010,05,30,12,33,13.50
2010,05,30,12,34,13.60
2010,05,30,12,35,13.60
2010,05,30,12,36,13.60
2010,05,30,12,37,13.70
2010,05,30,12,38,13.60
2010,05,30,12,39,13.60
2010,05,30,12,40,13.60
2010,05,30,12,41,13.60
2010,05,30,12,42,13.70
2010,05,30,12,43,13.60
2010,05,30,12,44,13.60
2010,05,30,12,45,13.60
2010,05,30,12,46,13.50
2010,05,30,12,47,13.50
2010,05,30,12,48,13.40
2010,05,30,12,49,13.40
2010,05,30,12,50,13.40
2010,05,30,12,51,13.40
2010,05,30,12,52,13.40
2010,05,30,12,53,13.40
2010,05,30,12,54,13.40
2010,05,30,12,55,13.40
2010,05,30,12,56,13.50
2010,05,30,12,57,13.40
2010,05,30,12,58,13.50
2010,05,30,12,59,13.50
2010,05,30,13,00,13.50
2010,05,30,13,01,13.60
2010,05,30,13,02,13.60
2010,05,30,13,03,13.70
2010,05,30,13,04,13.70
2010,05,30,13,05,13.80
2010,05,30,13,06,13.80
2010,05,30,13,07,13.80
2010,05,30,13,08,13.80
2010,05,30,13,09,13.80
2010,05,30,13,10,13.80
2010,05,30,13,11,13.80
2010,05,30,13,12,13.80
2010,05,30,13,13,13.80
2010,05,30,13,14,13.70
2010,05,30,13,15,13.60
2010,05,30,13,16,13.60
2010,05,30,13,17,13.60
2010,05,30,13,18,13.60
2010,05,30,13,19,13.60
2010,05,30,13,20,13.60
2010,05,30,13,21,13.60
2010,05,30,13,22,13.60
2010,05,30,13,23,13.70
2010,05,30,13,24,13.70
2010,05,30,13,25,13.70
2010,05,30,13,26,13.70
2010,05,30,13,27,13.80
2010,05,30,13,28,13.80
2010,05,30,13,29,13.80
2010,05,30,13,30,13.80
2010,05,30,13,31,13.80
2010,05,30,13,32,13.90
2010,05,30,13,33,13.90
2010,05,30,13,34,13.80
2010,05,30,13,35,13.80
2010,05,30,13,36,13.90
2010,05,30,13,37,13.90
2010,05,30,13,38,13.90
2010,05,30,13,39,13.90
2010,05,30,13,40,13.90
2010,05,30,13,41,13.90
2010,05,30,13,42,14.00
2010,05,30,13,43,14.00
2010,05,30,13,44,14.00
2010,05,30,13,45,14.00
2010,05,30,13,46,14.10
2010,05,30,13,47,14.10
2010,05,30,13,48,14.00
2010,05,30,13,49,14.00
2010,05,30,13,50,13.90
2010,05,30,13,51,13.80
2010,05,30,13,52,13.70
2010,05,30,13,53,13.60
2010,05,30,13,54,13.60
2010,05,30,13,55,13.60
2010,05,30,13,56,13.60
2010,05,30,13,57,13.60
2010,05,30,13,58,13.60
2010,05,30,13,59,13.60
2010,05,30,14,00,13.60
2010,05,30,14,01,13.60
2010,05,30,14,02,13.60
2010,05,30,14,03,13.60
2010,05,30,14,04,13.70
2010,05,30,14,05,13.70
2010,05,30,14,06,13.60
2010,05,30,14,07,13.60
2010,05,30,14,08,13.60
2010,05,30,14,09,13.60
2010,05,30,14,10,13.50
2010,05,30,14,11,13.50
2010,05,30,14,12,13.50
2010,05,30,14,13,13.40
2010,05,30,14,14,13.30
2010,05,30,14,15,13.20
2010,05,30,14,16,13.10
2010,05,30,14,17,13.10
2010,05,30,14,18,13.10
2010,05,30,14,19,13.10
2010,05,30,14,20,13.10
2010,05,30,14,21,13.00
2010,05,30,14,22,13.00
2010,05,30,14,23,13.10
2010,05,30,14,24,13.10
2010,05,30,14,25,13.10
2010,05,30,14,26,13.20
2010,05,30,14,27,13.30
2010,05,30,14,28,13.40
2010,05,30,14,29,13.50
2010,05,30,14,30,13.50
2010,05,30,14,31,13.60
2010,05,30,14,32,13.60
2010,05,30,14,33,13.60
2010,05,30,14,34,13.60
2010,05,30,14,35,13.60
2010,05,30,14,36,13.70
2010,05,30,14,37,13.70
2010,05,30,14,38,13.80
2010,05,30,14,39,13.80
2010,05,30,14,40,13.80
2010,05,30,14,41,13.80
2010,05,30,14,42,13.90
2010,05,30,14,43,13.90
2010,05,30,14,44,13.80
2010,05,30,14,45,13.80
2010,05,30,14,46,13.80
2010,05,30,14,47,13.80
2010,05,30,14,48,13.80
2010,05,30,14,49,13.80
2010,05,30,14,50,13.80
2010,05,30,14,51,13.80
2010,05,30,14,52,13.80
2010,05,30,14,53,13.80
2010,05,30,14,54,13.80
2010,05,30,14,55,13.70
2010,05,30,14,56,13.70
2010,05,30,14,57,13.70
2010,05,30,14,58,13.70
2010,05,30,14,59,13.70
2010,05,30,15,00,13.80
2010,05,30,15,01,13.80
2010,05,30,15,02,13.80
2010,05,30,15,03,13.80
2010,05,30,15,04,13.80
2010,05,30,15,05,13.70
2010,05,30,15,06,13.80
2010,05,30,15,07,13.80
2010,05,30,15,08,13.80
2010,05,30,15,09,13.70
2010,05,30,15,10,13.70
2010,05,30,15,11,13.60
2010,05,30,15,12,13.50
2010,05,30,15,13,13.50
2010,05,30,15,14,13.40
2010,05,30,15,15,13.40
2010,05,30,15,16,13.30
2010,05,30,15,17,13.30
2010,05,30,15,18,13.30
2010,05,30,15,19,13.20
2010,05,30,15,20,13.10
2010,05,30,15,21,13.00
2010,05,30,15,22,12.90
2010,05,30,15,23,12.80
2010,05,30,15,24,12.80
2010,05,30,15,25,12.80
2010,05,30,15,26,12.70
2010,05,30,15,27,12.70
2010,05,30,15,28,12.70
2010,05,30,15,29,12.70
2010,05,30,15,30,12.80
2010,05,30,15,31,12.80
2010,05,30,15,32,12.80
2010,05,30,15,33,12.80
2010,05,30,15,34,12.80
2010,05,30,15,35,12.90
2010,05,30,15,36,12.90
2010,05,30,15,37,12.90
2010,05,30,15,38,12.90
2010,05,30,15,39,12.90
2010,05,30,15,40,12.90
2010,05,30,15,41,12.80
2010,05,30,15,42,12.80
2010,05,30,15,43,12.70
2010,05,30,15,44,12.70
2010,05,30,15,45,12.70
2010,05,30,15,46,12.50
2010,05,30,15,47,12.50
2010,05,30,15,48,12.40
2010,05,30,15,49,12.30
2010,05,30,15,50,12.20
2010,05,30,15,51,12.20
2010,05,30,15,52,12.10
2010,05,30,15,53,12.20
2010,05,30,15,54,12.20
2010,05,30,15,55,12.20
2010,05,30,15,56,12.20
2010,05,30,15,57,12.10
2010,05,30,15,58,12.10
2010,05,30,15,59,12.20
2010,05,30,16,00,12.20
2010,05,30,16,01,12.20
2010,05,30,16,02,12.30
2010,05,30,16,03,12.30
2010,05,30,16,04,12.30
2010,05,30,16,05,12.30
2010,05,30,16,06,12.30
2010,05,30,16,07,12.30
2010,05,30,16,08,12.30
2010,05,30,16,09,12.30
2010,05,30,16,10,12.30
2010,05,30,16,11,12.30
2010,05,30,16,12,12.30
2010,05,30,16,13,12.30
2010,05,30,16,14,12.30
2010,05,30,16,15,12.20
2010,05,30,16,16,12.20
2010,05,30,16,17,12.20
2010,05,30,16,18,12.20
2010,05,30,16,19,12.20
2010,05,30,16,20,12.20
2010,05,30,16,21,12.20
2010,05,30,16,22,12.10
2010,05,30,16,23,12.10
2010,05,30,16,24,12.10
2010,05,30,16,25,12.00
2010,05,30,16,26,12.00
2010,05,30,16,27,12.00
2010,05,30,16,28,12.00
2010,05,30,16,29,12.10
2010,05,30,16,30,12.00
2010,05,30,16,31,12.00
2010,05,30,16,32,11.90
2010,05,30,16,33,11.90
2010,05,30,16,34,11.80
2010,05,30,16,35,11.80
2010,05,30,16,36,11.80
2010,05,30,16,37,11.80
2010,05,30,16,38,11.80
2010,05,30,16,39,11.80
2010,05,30,16,40,11.80
2010,05,30,16,41,11.70
2010,05,30,16,42,11.70
2010,05,30,16,43,11.70
2010,05,30,16,44,11.60
2010,05,30,16,45,11.60
2010,05,30,16,46,11.60
2010,05,30,16,47,11.50
2010,05,30,16,48,11.50
2010,05,30,16,49,11.50
2010,05,30,16,50,11.40
2010,05,30,16,51,11.40
2010,05,30,16,52,11.40
2010,05,30,16,53,11.40
2010,05,30,16,54,11.40
2010,05,30,16,55,11.40
2010,05,30,16,56,11.40
2010,05,30,16,57,11.40
2010,05,30,16,58,11.30
2010,05,30,16,59,11.30
2010,05,30,17,00,11.30
2010,05,30,17,01,11.30
2010,05,30,17,02,11.30
2010,05,30,17,03,11.30
2010,05,30,17,04,11.30
2010,05,30,17,05,11.40
2010,05,30,17,06,11.40
2010,05,30,17,07,11.40
2010,05,30,17,08,11.40
2010,05,30,17,09,11.40
2010,05,30,17,10,11.50
2010,05,30,17,11,11.50
2010,05,30,17,12,11.50
2010,05,30,17,13,11.60
2010,05,30,17,14,11.60
2010,05,30,17,15,11.60
2010,05,30,17,16,11.60
2010,05,30,17,17,11.60
2010,05,30,17,18,11.60
2010,05,30,17,19,11.60
2010,05,30,17,20,11.60
2010,05,30,17,21,11.60
2010,05,30,17,22,11.60
2010,05,30,17,23,11.60
2010,05,30,17,24,11.60
2010,05,30,17,25,11.60
2010,05,30,17,26,11.70
2010,05,30,17,27,11.70
2010,05,30,17,28,11.60
2010,05,30,17,29,11.60
2010,05,30,17,30,11.60
2010,05,30,17,31,11.60
2010,05,30,17,32,11.60
2010,05,30,17,33,11.70
2010,05,30,17,34,11.70
2010,05,30,17,35,11.70
2010,05,30,17,36,11.60
2010,05,30,17,37,11.60